Theta_e
316 316 315 315 315 314 314 314 314 315 315 315 315 316 316 316 317 317 318 319 320 321 322 322 322 322 323 324 325 326 327 327 327 327 327 327 328 329 328 328 328 329 329 329 329 329 330 331 331 330 331 331 331 330 329 329 331 331 330 331 331 330 329 329 328 328 328 328 328 328 328 328 328 328 328 328 328 328 328 326 326 324 319 314 315
315 315 315 314 313 313 313 314 315 315 315 315 315 316 315 315 316 316 317 318 319 320 320 320 320 321 322 323 324 325 326 326 326 326 327 327 328 328 328 328 328 329 329 329 328 328 329 330 330 330 330 331 330 330 329 329 331 331 330 331 331 330 329 329 328 328 328 328 328 329 329 328 328 328 328 328 328 327 327 326 325 323 318 311 308
314 314 314 313 312 312 313 314 315 314 314 315 315 315 315 316 316 317 317 317 318 318 319 319 319 320 322 323 322 323 324 324 325 326 326 326 327 326 327 327 327 328 329 329 329 329 329 329 329 330 330 330 330 330 330 330 330 330 330 330 330 330 329 329 328 328 328 328 328 328 329 328 328 328 328 328 327 327 327 326 324 320 316 310 307
313 313 312 312 311 312 312 313 314 314 314 315 315 315 315 315 316 316 316 316 316 317 317 317 317 318 320 320 321 322 322 323 324 324 325 326 326 326 326 326 326 327 328 328 329 329 329 329 328 329 330 330 330 330 330 330 330 330 330 330 330 330 329 329 328 328 328 327 328 328 327 328 328 328 328 327 327 327 326 326 324 318 313 309 307
313 312 312 311 310 310 311 312 313 313 314 314 314 314 314 315 315 315 315 315 315 315 315 316 316 317 318 319 319 320 321 322 323 324 324 325 326 326 326 327 327 327 327 327 328 329 329 328 327 328 329 330 329 329 330 330 329 329 329 329 330 330 330 329 329 328 328 327 327 327 327 327 328 328 328 327 327 327 327 327 324 317 311 308 307
312 311 310 310 309 309 310 311 312 313 313 313 313 313 313 313 313 314 314 314 314 314 314 315 315 316 317 317 318 318 319 320 321 322 323 325 325 326 327 328 327 327 327 327 328 328 329 328 327 327 328 329 329 329 329 329 329 329 328 329 330 330 330 329 329 329 328 327 327 327 327 327 328 328 327 327 327 327 327 326 324 317 310 308 308
311 310 309 308 308 308 309 309 310 311 311 311 311 311 312 312 312 312 313 313 314 314 314 314 314 315 315 316 317 317 318 318 319 321 322 323 324 325 326 327 328 327 327 327 327 327 328 328 327 326 327 328 329 330 329 329 330 330 329 329 330 330 329 329 329 329 328 328 327 327 327 327 328 328 327 327 327 327 326 326 324 318 311 308 308
310 309 308 307 307 307 307 308 308 309 309 310 310 310 310 310 310 311 311 312 312 312 313 313 313 314 314 315 315 316 316 317 319 320 321 322 323 323 324 326 326 327 327 327 327 328 327 327 326 326 326 327 329 330 330 330 330 330 330 330 330 329 328 328 329 329 328 328 327 327 327 327 327 327 327 327 327 326 325 325 324 322 315 309 308
309 308 307 306 306 306 306 306 306 306 307 308 308 309 309 309 309 309 310 310 310 311 311 311 312 312 313 313 314 315 316 316 317 318 319 320 321 322 322 323 324 325 326 327 327 327 327 327 326 327 327 328 329 330 330 330 330 330 329 330 329 328 327 328 329 329 329 329 329 328 327 327 327 327 327 327 327 326 326 325 324 324 319 310 311
307 307 306 306 306 306 305 305 305 305 305 305 306 306 307 307 308 309 309 309 309 309 309 310 310 310 311 311 312 313 314 315 316 317 318 318 319 320 321 321 322 324 325 326 326 327 327 328 327 326 327 327 327 328 329 330 330 330 329 330 330 329 329 328 328 328 328 328 328 328 328 327 327 327 327 327 327 326 325 325 324 324 319 313 315
305 305 305 305 305 305 305 305 304 304 304 304 304 304 304 305 306 307 307 308 308 308 308 308 309 309 309 309 310 311 312 313 315 316 317 317 318 319 319 320 321 322 323 324 326 327 327 327 327 326 325 325 325 325 327 327 328 330 330 330 329 329 329 329 329 329 328 328 328 328 328 328 327 327 327 326 326 326 325 325 324 323 320 316 317
304 303 303 303 303 303 303 303 303 303 303 303 303 303 303 303 303 305 305 306 306 307 307 307 307 307 308 308 309 309 310 311 313 315 316 317 317 318 320 320 321 322 322 323 325 326 326 327 326 326 325 324 324 324 325 326 327 329 330 329 329 328 328 329 329 329 328 328 328 328 328 328 327 327 327 326 326 326 325 325 324 322 321 319 317
303 303 303 303 302 302 301 301 301 302 302 303 302 301 301 301 301 302 303 304 304 305 305 305 306 306 307 307 307 308 309 309 311 313 315 316 317 318 320 321 321 322 322 323 324 325 326 326 326 326 326 325 324 324 325 326 327 327 328 329 328 328 328 327 327 327 328 328 328 328 327 327 327 326 326 326 326 326 325 324 324 323 322 322 319
303 302 302 302 301 300 300 300 301 301 301 301 300 299 299 299 300 301 302 302 303 303 303 304 304 305 305 306 306 307 307 308 309 311 313 315 317 318 319 321 321 321 322 322 323 324 324 325 326 326 326 325 325 324 325 325 327 327 328 328 328 328 327 326 326 327 328 328 328 327 327 326 326 326 326 326 326 326 325 325 325 324 323 323 321
302 302 302 300 299 298 298 299 300 300 299 299 298 298 298 298 298 299 300 301 301 301 302 302 303 303 304 305 305 306 306 307 308 309 311 313 315 317 318 319 320 320 321 321 322 323 323 324 325 326 327 326 325 325 325 325 326 327 327 327 328 328 327 327 327 328 329 328 327 327 326 326 326 325 325 325 325 325 325 325 324 324 324 323 319
302 302 301 300 299 298 298 298 298 298 297 298 298 298 298 297 297 298 298 299 300 300 300 301 301 302 302 303 304 304 305 305 307 308 309 311 314 315 317 317 318 319 320 321 321 322 323 324 325 326 326 326 325 325 325 325 325 326 327 327 327 327 327 327 327 328 328 328 328 327 327 326 325 325 325 325 325 325 325 324 324 324 323 321 318
301 301 300 300 299 299 298 297 297 297 297 297 297 297 297 297 297 297 297 298 298 299 300 300 300 301 301 302 302 303 303 304 305 306 308 310 312 314 315 316 316 317 318 319 320 321 322 323 324 325 326 325 325 325 325 325 326 326 326 326 327 327 327 327 327 327 328 328 328 327 327 326 325 325 325 324 324 324 324 323 322 323 322 320 317
300 300 300 300 299 299 298 298 297 297 297 297 297 296 296 296 296 296 296 296 297 298 299 299 300 300 300 301 301 301 302 302 303 304 306 307 309 311 312 314 315 316 316 317 318 319 320 321 322 324 325 325 325 325 325 325 326 326 326 326 327 327 327 327 327 327 328 328 327 326 327 326 325 325 325 325 324 323 323 323 323 323 322 318 315
301 300 300 300 299 299 298 298 297 297 296 296 296 296 296 296 296 296 296 296 296 296 297 299 299 300 300 300 300 301 301 301 302 303 304 305 307 308 309 311 313 313 314 315 316 317 318 320 321 322 324 325 325 325 325 326 326 326 326 326 326 326 326 326 327 327 327 327 327 326 327 327 326 325 324 324 323 323 322 322 323 323 321 317 314
301 301 300 300 299 299 298 298 297 297 296 296 296 296 296 295 295 296 296 296 296 295 296 297 298 299 300 300 300 300 300 300 301 301 302 303 304 305 307 309 309 309 310 312 315 316 317 320 321 322 323 324 324 324 325 326 325 325 325 325 324 325 325 325 325 326 326 326 326 326 326 326 325 325 323 321 321 321 321 321 321 322 321 318 314
301 300 300 300 299 299 298 298 297 297 296 296 296 296 296 295 295 295 295 296 296 296 295 295 296 297 298 299 300 300 300 300 300 300 301 302 303 303 304 305 306 306 308 310 312 313 315 317 319 321 323 323 323 323 324 324 323 324 324 323 323 323 323 323 323 324 323 323 324 325 325 324 324 323 323 321 320 320 319 319 319 319 320 318 315
300 300 299 299 299 299 298 298 298 297 297 296 296 296 296 295 295 295 295 295 296 296 295 295 295 295 296 297 298 299 299 300 300 300 300 301 302 302 302 302 303 304 306 307 308 309 310 312 314 317 320 322 322 323 322 322 322 322 321 319 319 320 320 320 321 321 320 321 322 322 323 322 321 321 321 321 321 320 320 319 318 318 318 317 315
300 299 299 299 299 299 299 298 298 297 297 296 296 296 296 296 295 294 294 294 295 296 296 295 295 295 295 295 296 297 298 299 299 300 300 300 301 301 301 301 301 302 303 304 305 306 307 308 310 312 315 318 320 322 321 320 321 321 319 317 318 318 317 317 317 318 319 319 320 321 320 320 320 320 320 320 320 320 320 320 319 318 317 315 314
299 299 299 299 299 299 299 298 298 297 297 297 296 296 296 296 295 294 294 294 294 295 295 295 295 295 295 295 295 296 297 298 298 299 299 299 299 300 301 301 301 302 302 303 303 304 305 306 307 309 311 313 316 319 318 317 318 319 318 318 318 317 317 316 316 317 317 317 318 318 318 317 317 317 318 318 318 319 320 320 320 319 318 316 315
299 299 299 299 299 299 299 298 298 297 297 297 296 297 296 296 295 294 294 294 294 294 294 295 295 295 295 295 295 295 295 296 297 297 298 298 298 299 299 299 300 301 301 302 302 303 303 305 306 308 309 309 312 314 313 311 313 315 316 317 317 316 316 316 315 316 316 315 315 315 315 314 314 314 314 314 315 317 318 318 318 317 316 316 316
299 299 299 299 299 299 299 298 298 297 297 297 296 296 296 296 295 295 294 294 294 294 294 294 294 295 295 295 295 295 295 295 296 296 296 296 297 297 298 298 298 299 300 300 301 302 303 303 304 305 306 306 307 307 307 307 310 311 312 313 314 314 314 313 313 313 313 312 312 312 311 311 311 311 311 311 312 313 313 313 313 311 311 311 312
299 298 299 299 299 299 298 298 297 297 297 297 297 296 296 296 296 295 295 294 294 294 294 294 294 294 294 294 295 295 295 295 295 296 296 295 296 296 296 297 297 298 298 298 299 301 302 302 303 303 304 304 304 304 304 305 306 307 307 309 310 311 311 311 311 311 310 309 309 309 308 309 308 308 308 309 309 309 309 309 310 309 309 309 309
299 298 299 299 299 298 298 298 297 297 297 297 297 296 296 296 296 296 295 294 294 294 294 294 294 294 293 293 294 295 295 296 296 296 296 296 296 296 296 296 296 297 297 297 298 299 300 301 302 302 303 303 303 303 303 302 302 302 302 303 304 305 306 307 307 306 305 305 305 305 305 305 306 305 305 305 305 305 305 306 307 307 307 308 308
298 298 298 299 298 298 298 298 297 297 297 297 297 297 296 296 296 296 295 295 294 294 294 294 294 294 293 293 294 294 295 296 296 296 296 296 296 296 296 296 296 296 296 297 297 298 298 299 299 300 301 301 302 302 302 302 302 301 301 301 301 302 303 303 303 302 301 301 301 301 301 302 302 302 302 302 302 302 302 303 303 303 304 306 305
298 298 298 298 298 298 298 298 297 297 297 297 297 297 296 296 296 296 295 295 295 294 294 294 294 294 294 293 293 294 295 295 295 295 295 295 295 295 296 296 296 296 296 296 297 297 297 297 297 297 298 298 299 299 299 300 301 301 301 301 301 301 302 302 301 301 301 301 301 301 301 301 301 301 301 300 300 300 301 301 302 302 302 303 303
298 298 298 298 298 298 298 298 297 297 297 297 297 297 296 296 296 296 296 295 295 295 294 294 294 294 294 293 293 293 293 294 295 295 295 295 295 295 295 295 296 296 296 296 296 296 296 296 296 296 296 297 297 297 297 298 298 299 300 300 300 301 301 301 301 301 301 301 301 301 301 301 301 301 301 301 301 301 301 301 301 301 301 302 302
298 298 298 298 298 298 298 298 298 297 297 297 297 297 296 296 296 296 296 296 295 295 295 294 294 294 294 294 293 293 292 293 293 294 294 294 294 294 295 295 295 295 296 296 296 296 296 296 296 296 296 296 296 296 296 297 297 297 297 298 298 299 299 299 299 300 300 300 300 300 301 301 300 300 300 301 301 300 301 301 301 300 300 300 300
298 298 298 298 298 298 298 298 298 297 297 297 297 297 297 296 296 296 296 296 296 295 295 295 294 294 294 294 294 293 292 292 292 293 294 294 294 294 294 294 294 295 295 296 296 295 295 295 295 296 296 296 296 296 296 296 296 296 297 297 297 297 297 297 298 298 298 298 299 299 299 299 299 299 299 300 300 300 300 300 300 299 299 299 299
298 298 298 298 298 298 298 298 298 297 297 297 297 297 297 296 296 296 296 296 296 296 296 295 295 295 295 294 294 294 293 293 292 292 293 293 294 294 294 294 294 294 295 295 295 294 294 295 295 295 296 296 296 296 296 296 296 296 296 296 297 297 297 297 297 298 298 298 298 298 298 299 299 299 299 299 300 300 300 300 300 299 299 299 298
299 298 298 298 298 298 298 298 298 298 297 297 297 297 297 297 296 296 296 296 296 296 296 296 296 295 295 295 295 295 294 294 293 292 292 292 293 293 294 294 294 294 294 294 294 294 294 294 294 295 295 295 295 295 295 296 296 296 296 296 296 297 297 297 297 297 298 298 298 297 298 298 298 299 299 299 299 300 300 300 300 299 299 299 299
299 298 298 298 298 298 298 298 298 298 297 297 297 297 297 297 297 296 296 296 296 296 296 296 296 296 295 295 295 295 295 294 294 293 292 292 292 293 293 293 294 294 294 294 295 295 294 294 294 294 294 295 295 295 295 295 295 296 296 296 296 296 296 296 297 297 297 297 297 297 297 298 298 298 298 298 299 299 299 300 300 299 299 299 298
298 298 298 298 298 298 298 298 298 298 298 297 297 297 297 297 297 297 297 296 296 296 296 296 296 296 296 296 295 295 295 295 294 294 293 292 292 293 293 293 293 294 294 294 295 295 294 294 294 294 294 294 294 294 294 294 295 295 295 295 295 295 295 295 295 296 296 296 296 296 297 297 297 297 298 298 298 298 298 298 298 298 298 298 298
298 298 298 298 298 298 298 298 297 297 297 297 297 297 297 297 297 297 297 297 296 296 296 296 296 296 296 296 296 296 295 295 295 295 293 292 291 292 293 293 293 293 293 293 294 294 294 294 294 294 294 294 294 294 294 294 294 294 295 295 295 295 295 295 295 295 295 295 295 295 295 295 295 295 296 297 297 297 297 297 298 298 297 297 297
298 297 297 297 298 298 298 298 297 297 296 297 297 298 297 297 297 297 297 297 297 297 297 297 296 296 296 296 296 296 296 295 295 295 294 292 291 292 293 293 293 292 292 293 293 294 294 294 294 294 294 294 294 294 294 294 294 294 294 294 294 294 294 294 294 294 294 294 294 294 294 294 294 294 294 294 295 295 296 296 297 297 296 296 296
298 297 297 297 298 298 297 297 297 296 296 297 297 297 297 297 297 296 296 296 297 297 297 297 297 297 296 296 296 296 296 296 295 295 294 293 292 291 292 292 293 293 293 293 293 293 294 294 294 294 294 294 294 294 293 293 293 293 294 294 294 294 294 294 294 294 294 294 294 294 293 293 294 294 294 293 293 294 294 295 295 295 295 295 295
297 297 297 297 297 297 297 297 297 297 296 297 297 297 297 297 296 296 296 296 296 296 297 297 297 297 296 296 296 296 296 296 295 295 295 294 293 292 291 291 292 293 293 293 293 293 293 293 293 293 294 294 293 293 293 293 293 293 293 293 293 293 293 294 294 294 293 293 293 293 293 293 293 293 293 293 293 293 293 293 294 294 295 295 295
297 297 297 297 297 297 296 297 297 297 296 296 297 297 296 296 296 295 296 296 296 296 296 296 297 297 297 297 296 296 296 296 295 295 295 295 294 293 291 291 291 292 292 293 293 293 293 293 293 293 293 293 293 293 293 293 293 293 293 293 293 292 292 293 293 293 293 293 293 293 293 293 293 293 293 293 293 293 293 293 293 293 293 294 294
297 297 297 297 296 296 296 296 297 296 295 295 296 296 296 296 296 295 295 296 297 296 296 296 296 296 297 297 297 296 296 296 295 295 295 295 294 294 293 291 291 291 291 292 293 293 293 293 293 293 293 293 293 293 293 293 293 293 293 293 293 292 292 292 292 292 292 293 293 293 293 293 293 293 293 293 293 293 293 293 292 293 293 293 293
297 297 297 296 296 296 295 296 296 295 295 295 295 295 295 295 295 295 295 296 296 296 296 296 295 296 296 296 296 296 296 296 295 295 295 295 295 294 294 292 291 290 291 292 293 293 294 293 293 293 293 293 292 292 293 293 292 292 292 292 292 292 292 292 292 292 292 292 292 292 292 292 292 292 292 292 293 293 293 293 293 293 293 293 293
296 296 296 296 296 296 296 296 296 296 295 295 295 295 295 295 295 295 295 295 296 296 296 296 296 296 296 296 296 296 296 296 296 295 295 295 295 294 294 293 292 291 290 290 291 292 293 293 293 293 293 293 293 293 293 292 292 291 291 291 291 291 291 291 292 292 292 292 292 292 292 292 292 291 291 291 292 292 292 292 292 292 292 292 292
296 296 296 297 297 296 296 296 296 296 296 295 295 295 295 295 294 294 294 295 296 296 296 296 295 296 296 296 296 296 296 296 296 295 295 295 295 294 294 294 293 292 291 290 290 290 291 292 292 293 293 293 293 292 292 291 290 289 289 289 289 290 290 290 290 291 291 292 292 292 292 292 291 291 291 291 291 291 291 292 292 292 292 292 292
297 297 296 297 297 297 297 296 296 296 295 295 295 295 295 295 294 293 294 295 295 295 295 295 295 295 295 295 295 295 295 296 296 295 295 295 295 295 294 294 294 293 292 291 291 290 290 290 290 290 290 290 290 290 290 290 289 289 290 290 290 290 290 290 290 290 290 291 291 291 291 291 291 290 290 289 289 290 290 291 291 291 291 292 292
297 297 297 297 297 297 297 297 296 296 295 295 295 295 295 295 295 294 293 294 295 295 294 294 294 294 294 295 295 295 295 295 295 295 295 295 295 295 294 294 294 294 293 292 292 291 290 290 289 289 290 289 289 289 289 289 289 289 289 289 289 289 289 289 289 289 289 289 289 289 289 289 289 289 288 288 288 289 289 289 290 289 289 290 291
297 297 297 297 296 296 297 297 296 295 295 295 295 295 295 295 295 294 293 293 293 294 294 294 293 293 293 293 293 293 294 294 294 295 295 295 295 295 294 294 294 294 294 293 293 293 292 291 290 290 290 289 289 289 289 289 289 289 289 289 289 289 288 288 288 287 287 287 287 287 287 287 287 287 287 287 287 288 288 288 289 288 288 289 290
297 297 297 296 296 296 296 296 296 295 295 295 295 295 295 295 295 295 294 293 292 292 293 293 292 291 291 291 291 291 291 292 292 293 294 294 295 295 294 294 294 294 294 294 293 293 293 292 291 290 290 289 289 289 289 289 289 289 289 289 289 289 289 288 287 287 286 286 286 286 286 286 286 286 287 287 287 287 287 288 288 288 288 289 290
298 297 297 297 296 296 296 296 296 296 295 295 295 295 295 294 294 295 295 295 293 292 291 291 291 290 290 291 290 290 290 290 290 291 292 292 293 294 294 294 294 294 294 294 294 294 294 293 292 291 291 290 290 289 289 289 289 289 289 289 289 289 289 289 288 287 286 286 286 286 286 286 286 286 286 286 286 286 286 286 287 287 288 288 289
Wind_Speed
10 9 9 8 7 7 8 9 10 10 9 8 7 7 6 5 5 5 7 9 11 13 13 11 10 11 12 13 14 13 14 14 14 14 14 15 15 17 17 16 16 17 16 17 17 19 20 21 22 23 23 25 27 28 28 28 28 28 28 28 29 31 30 29 30 30 27 25 25 28 30 30 30 30 30 29 28 27 24 22 22 22 23 24 24
9 8 7 8 9 10 11 11 12 12 11 10 9 9 8 7 6 6 6 6 8 10 10 9 8 9 11 13 14 14 14 15 16 16 15 15 15 14 15 15 15 16 16 17 18 18 19 21 22 23 23 24 25 26 27 28 27 28 28 28 29 30 29 29 30 30 29 28 26 28 31 31 31 30 31 31 31 29 26 24 23 24 24 24 24
9 8 8 10 11 12 12 13 13 12 12 12 12 12 11 11 10 9 7 6 6 7 8 8 8 8 10 14 14 14 15 16 17 17 17 16 17 16 15 15 16 17 17 18 18 19 21 21 22 24 24 24 25 26 27 28 28 28 29 29 29 29 29 30 30 29 31 30 27 28 30 31 31 30 30 31 31 29 26 25 24 25 26 25 25
9 9 10 12 13 13 14 14 14 13 13 14 14 14 14 13 13 13 12 10 8 8 8 8 9 9 12 14 14 15 16 16 17 18 18 17 18 18 18 17 17 18 18 19 20 21 22 23 23 23 24 25 25 25 26 27 27 28 29 30 29 29 30 31 29 27 28 28 27 28 29 30 31 31 32 31 30 28 26 25 25 26 27 27 26
8 9 10 12 13 14 15 15 15 15 15 15 16 15 15 15 15 15 15 14 13 11 10 9 9 10 12 14 15 16 18 18 18 18 18 19 19 19 20 20 20 20 20 20 21 22 23 24 23 22 23 24 23 24 25 26 27 28 29 30 30 30 30 30 27 26 25 25 27 29 30 31 32 32 32 31 29 29 29 27 26 27 28 27 27
8 9 10 12 14 15 17 17 17 16 16 17 17 16 16 16 16 16 15 15 15 14 14 13 11 11 12 14 16 17 19 20 20 20 19 19 19 19 19 20 21 21 20 20 21 22 22 22 22 22 24 24 23 23 24 25 27 27 27 29 31 30 29 29 28 27 25 24 26 29 32 34 34 33 32 31 32 33 32 29 26 27 28 29 29
8 9 11 14 16 18 19 19 18 18 18 18 17 17 17 16 16 17 16 15 15 15 15 15 15 14 14 15 16 18 19 20 21 21 21 21 20 19 19 20 21 20 20 20 20 20 21 21 21 22 24 25 24 23 23 24 26 27 27 28 30 29 28 29 30 29 27 24 25 28 32 34 36 35 33 32 34 35 34 32 30 29 29 30 31
10 12 14 17 19 19 19 19 18 18 17 17 17 16 16 16 16 16 16 16 16 17 16 16 15 15 15 16 16 18 19 19 20 20 21 21 21 21 20 21 22 22 21 20 19 19 20 20 21 22 23 24 24 24 23 23 25 25 26 28 28 27 27 29 31 30 29 27 27 29 31 34 37 37 35 35 37 36 35 35 33 31 31 32 31
12 15 18 21 21 21 20 20 19 19 18 17 17 16 16 16 16 15 16 17 17 17 17 17 16 16 17 17 18 18 19 19 19 20 21 21 22 22 22 21 21 23 23 21 19 19 19 20 21 21 22 22 22 22 22 22 23 23 25 26 27 26 27 30 31 31 31 31 30 30 31 35 38 39 39 39 38 36 36 36 34 32 31 32 32
15 17 20 21 20 20 20 20 20 20 19 19 18 17 17 16 15 15 15 16 17 17 17 18 18 19 19 19 19 20 20 20 20 20 21 22 22 22 22 21 20 21 22 22 22 20 19 20 21 21 21 21 22 23 23 23 23 24 25 26 26 26 28 31 31 32 32 32 31 31 33 36 39 41 41 41 38 37 38 37 35 34 32 33 34
19 20 20 19 18 18 18 18 19 19 20 20 19 19 19 18 17 16 16 17 17 18 18 19 20 21 21 21 21 21 21 22 21 20 20 20 21 20 20 20 20 19 20 22 23 22 21 21 21 22 21 21 22 23 24 24 24 25 25 26 25 27 29 30 30 30 31 31 31 33 35 37 39 41 40 40 41 40 39 38 38 38 36 36 36
23 23 22 21 19 19 18 17 18 18 19 19 20 21 21 21 20 20 19 19 20 20 20 21 21 22 22 22 23 23 23 23 22 20 20 19 20 18 17 17 17 16 17 18 20 22 22 22 22 22 22 22 22 23 24 25 26 25 26 26 26 27 28 29 29 30 32 32 32 33 35 37 40 42 41 41 42 43 40 38 39 39 37 38 38
24 23 23 22 21 20 19 18 18 18 18 18 20 21 22 23 23 23 22 22 22 22 23 23 22 22 22 22 23 23 23 24 24 22 20 19 19 18 15 14 14 13 13 14 17 20 22 23 23 23 24 22 22 23 24 25 25 25 26 27 27 28 28 29 29 30 31 32 32 33 34 35 38 41 40 40 42 44 43 40 38 38 38 38 38
23 23 23 24 24 23 21 20 19 18 18 19 21 22 23 23 24 23 23 23 23 24 24 24 24 23 22 22 23 23 24 25 25 25 22 19 18 18 16 14 12 11 11 12 14 17 20 22 23 23 24 23 22 23 24 25 25 26 27 28 28 28 27 28 28 28 29 30 31 31 30 31 34 37 39 42 44 45 43 39 39 40 39 37 35
22 22 23 25 26 25 24 22 21 20 20 20 22 23 23 23 23 23 22 23 24 25 25 26 25 25 23 22 22 23 25 25 25 26 25 21 17 16 16 15 13 11 11 11 12 14 16 19 22 23 23 23 22 21 23 24 25 26 27 28 28 28 28 27 28 29 29 30 29 27 26 28 30 33 38 43 45 44 40 37 37 38 37 36 34
22 22 23 25 27 27 26 25 24 23 22 22 23 24 23 23 22 22 22 23 24 25 27 27 28 27 26 25 23 23 24 26 26 26 26 24 19 15 15 16 16 14 12 12 12 13 14 16 19 22 24 23 21 21 21 23 24 26 26 27 28 28 28 27 27 29 28 27 27 25 25 28 30 32 37 42 43 41 38 37 39 39 37 37 38
23 24 25 25 27 28 27 27 26 24 24 24 25 25 24 23 22 21 21 23 24 26 27 28 29 29 29 29 27 26 25 26 27 27 27 27 23 19 16 16 16 15 14 13 13 13 14 15 17 20 23 24 22 21 21 21 23 25 24 25 27 28 28 28 28 28 27 26 26 25 26 29 30 32 35 37 38 38 39 41 42 41 40 41 41
24 24 25 25 26 28 28 28 28 26 26 27 27 26 25 24 22 21 22 23 24 25 26 27 28 30 31 31 30 28 27 27 27 28 28 28 26 23 20 18 16 15 14 14 13 13 13 15 17 19 22 22 21 21 21 20 22 23 22 22 25 27 29 30 29 28 27 27 26 26 27 29 30 32 33 34 35 37 41 44 42 40 42 44 43
22 23 24 24 25 28 29 30 30 29 28 28 28 28 28 26 23 21 21 22 23 24 25 26 28 29 31 32 32 31 30 28 27 28 29 29 28 27 24 21 19 18 18 16 14 13 12 11 13 17 20 20 19 20 20 19 19 20 19 18 19 22 26 28 28 27 26 25 26 27 28 28 31 33 33 33 36 37 39 42 43 42 44 46 45
20 21 22 22 24 27 28 29 30 31 30 29 28 29 29 28 26 24 22 22 22 24 25 26 27 28 29 31 33 34 34 31 29 27 28 29 30 30 28 25 24 24 23 21 17 15 13 11 9 9 10 12 14 17 19 19 19 20 19 16 14 17 21 23 23 22 21 21 22 25 27 28 31 34 31 29 32 35 36 40 44 45 46 47 48
20 21 22 23 24 25 27 28 29 30 30 29 29 29 30 30 30 28 25 23 23 24 25 25 26 28 29 30 32 33 35 34 32 28 27 28 31 31 31 30 28 26 25 23 21 19 18 16 13 9 6 6 8 9 12 15 16 16 14 9 8 12 16 17 17 16 15 15 17 21 24 25 27 31 31 28 29 31 32 37 44 47 48 49 50
20 22 23 23 24 25 26 27 28 29 30 30 30 31 31 31 32 31 29 26 25 25 25 25 26 27 28 30 31 32 33 34 34 31 28 26 28 30 31 32 31 29 26 26 25 24 23 21 18 14 10 8 7 5 6 9 8 7 4 1 2 4 5 6 8 8 8 9 12 16 19 18 18 22 26 28 30 30 30 32 37 42 46 47 48
20 21 23 24 24 25 25 26 27 28 29 29 30 31 32 33 34 34 32 30 28 27 27 26 26 27 28 30 31 31 31 32 33 33 31 29 27 27 27 28 30 30 30 29 28 27 26 24 21 18 14 11 9 7 7 9 9 6 5 4 2 1 2 4 5 3 4 7 9 12 13 12 13 14 16 21 27 31 32 30 30 33 38 41 43
20 22 23 24 24 24 25 25 26 27 28 28 29 30 32 34 36 37 36 34 32 30 29 29 28 29 29 30 30 31 31 31 31 31 32 32 31 29 27 26 26 27 28 28 27 27 26 23 20 16 12 8 5 6 7 10 11 10 8 7 5 5 3 3 4 3 4 6 8 9 9 8 9 9 9 12 19 26 30 31 31 31 34 39 42
20 22 23 23 23 23 24 24 25 25 27 28 28 29 31 34 37 38 38 37 35 33 32 31 31 31 31 31 31 30 30 30 30 30 31 31 32 31 30 29 28 26 25 24 23 23 23 22 19 15 11 10 6 7 11 15 16 13 12 10 9 7 6 7 6 5 6 7 8 9 9 9 8 8 8 8 11 16 21 25 29 29 30 34 37
20 21 22 22 21 21 22 24 24 24 25 26 27 28 29 32 34 37 38 37 36 34 34 34 34 33 33 32 31 30 29 29 29 30 31 31 31 31 30 30 29 28 25 22 20 18 19 20 21 18 16 16 15 15 17 19 18 16 14 12 11 10 9 9 10 9 10 12 13 14 14 15 15 15 15 16 16 16 17 20 23 25 27 30 31
18 20 20 20 19 19 21 22 23 22 24 25 27 27 28 29 31 34 37 37 36 35 35 36 37 36 35 34 32 31 30 30 30 30 30 31 31 31 30 30 30 29 27 25 22 19 16 16 17 18 18 19 20 20 22 21 19 19 17 14 12 11 11 12 13 14 16 17 18 20 20 20 20 19 18 17 19 21 21 22 24 26 27 29 31
16 18 19 18 17 17 19 20 21 21 22 24 25 27 27 28 29 32 34 35 35 34 34 36 37 38 37 35 33 31 30 30 30 30 29 29 29 29 29 30 30 30 29 27 25 22 18 15 14 15 16 18 20 21 23 25 25 26 25 22 19 16 14 14 15 16 17 18 18 19 19 18 17 16 14 14 15 16 16 18 21 23 23 24 27
16 16 16 16 15 15 17 18 19 21 21 22 24 26 26 27 27 29 31 33 33 33 33 34 35 36 36 36 34 32 30 28 27 26 26 26 26 27 27 27 28 27 27 26 25 25 25 24 24 23 21 21 22 22 22 23 23 24 25 24 24 22 20 18 18 18 17 16 17 18 18 18 18 17 15 15 16 14 13 13 15 16 15 16 20
16 15 14 14 14 14 15 17 18 20 20 21 22 24 25 25 26 27 29 31 32 32 31 32 33 34 36 36 33 30 27 25 24 24 23 23 24 24 24 24 24 24 24 25 27 29 31 32 32 31 29 28 27 26 25 23 22 20 19 19 19 20 20 21 21 20 18 17 18 18 18 19 20 20 20 20 19 17 14 11 10 9 6 7 10
15 15 14 13 13 13 14 16 18 19 19 20 21 22 24 24 24 25 27 29 31 31 31 30 31 32 34 35 35 32 28 24 22 23 23 23 22 22 22 23 24 23 22 24 28 32 33 34 33 32 31 31 30 29 28 26 24 22 19 17 17 16 16 17 17 16 15 16 17 17 17 18 18 17 16 15 14 12 10 8 8 7 6 6 8
13 14 14 12 11 11 12 15 17 18 18 19 20 21 23 23 23 23 24 27 29 31 31 30 30 30 32 34 35 36 34 30 25 22 22 23 22 21 22 23 25 25 22 23 27 30 32 32 32 30 30 30 29 28 28 27 26 24 22 21 20 19 18 18 16 14 13 13 13 12 12 12 11 11 10 10 11 11 10 11 14 16 16 16 17
11 13 13 11 10 10 11 13 15 16 16 18 19 20 21 22 22 22 22 24 27 29 30 31 30 30 31 32 34 36 36 35 32 26 22 21 22 21 21 23 26 27 26 26 28 29 29 29 29 28 28 27 27 26 26 26 25 24 24 23 22 21 21 20 19 18 17 16 15 14 13 12 11 10 9 9 10 12 11 13 17 19 19 21 22
9 10 11 10 9 9 10 11 13 14 15 16 18 18 18 20 21 21 21 22 25 27 28 29 29 30 30 30 32 33 34 36 36 33 27 22 22 21 22 23 25 27 29 30 30 30 29 29 28 27 26 26 25 25 25 24 24 23 23 22 22 21 20 19 19 19 18 17 17 16 16 14 13 12 12 11 11 12 12 14 17 19 20 20 20
8 8 9 9 7 7 8 9 11 12 13 15 16 17 17 17 19 20 20 21 22 24 25 26 27 28 28 29 30 31 32 33 36 35 32 27 23 22 23 25 27 28 29 29 29 29 30 30 29 28 26 25 25 24 24 23 23 22 21 21 20 20 19 19 19 19 18 17 17 17 16 16 15 13 13 14 14 14 14 14 15 17 18 18 18
7 7 8 8 7 6 7 7 8 10 11 13 15 15 15 15 16 18 18 18 19 21 22 23 24 25 26 27 28 29 30 31 32 34 33 30 26 24 25 26 27 27 26 25 25 25 26 27 28 27 26 24 23 23 23 22 21 20 20 20 20 20 19 19 18 18 17 17 17 17 16 17 16 15 14 15 15 15 14 13 13 13 14 16 17
8 7 8 8 7 6 5 5 7 9 10 11 12 13 12 12 14 15 16 16 17 18 19 20 21 22 24 25 25 27 28 28 29 31 32 30 27 25 25 24 23 23 23 23 23 22 22 22 23 23 23 22 22 22 22 22 21 19 18 18 19 20 20 20 19 19 19 18 18 18 17 17 16 15 14 14 14 14 13 13 12 12 12 12 14
8 7 7 6 6 5 4 5 6 8 9 10 10 10 9 9 11 13 15 14 14 15 16 17 18 20 21 22 23 24 25 26 27 29 31 31 28 25 22 21 21 20 20 20 21 21 20 20 20 20 20 20 20 20 21 21 20 18 17 17 17 17 18 18 18 18 18 18 18 19 19 18 17 16 14 13 12 12 11 11 10 11 11 11 11
8 7 6 5 5 5 5 5 5 6 8 9 8 7 7 7 9 12 14 13 12 13 13 14 16 17 18 19 20 21 22 24 26 28 29 29 28 25 21 20 20 20 19 18 17 18 19 19 19 19 19 19 19 19 19 19 18 16 15 15 15 16 16 16 17 17 16 16 16 15 15 14 14 14 14 14 13 11 10 10 9 9 10 10 10
8 6 4 4 5 5 4 3 4 5 6 7 6 5 5 6 9 12 13 13 12 11 11 12 12 14 15 16 17 19 21 22 23 25 26 27 28 26 22 20 19 19 20 19 16 15 16 17 17 17 18 18 18 18 19 19 18 16 15 14 14 14 14 14 15 15 15 15 15 14 13 11 10 9 11 12 12 11 10 9 9 9 10 11 11
8 5 3 3 3 3 3 3 4 5 5 5 5 6 7 8 10 11 12 12 12 12 11 11 10 10 12 14 15 16 18 19 20 21 24 25 26 26 24 22 19 17 17 17 16 14 13 13 14 14 15 15 16 16 17 18 18 17 16 15 15 14 13 12 12 12 13 13 13 12 12 11 11 10 9 9 9 9 9 8 7 7 8 9 9
7 5 3 2 2 2 2 4 5 5 5 4 4 6 8 8 9 9 10 11 11 11 12 11 10 9 9 11 13 15 16 17 17 18 20 23 24 25 24 22 21 18 16 14 13 13 12 11 11 12 12 13 14 14 15 15 16 15 15 15 15 15 14 12 11 11 10 10 10 10 9 9 10 9 8 8 7 8 8 8 7 6 5 6 7
5 4 2 1 2 1 3 4 5 5 5 4 3 3 5 6 7 8 9 8 8 9 10 10 11 10 9 9 12 13 14 15 15 15 17 20 22 24 24 22 20 19 17 13 11 11 10 10 9 10 10 11 12 13 13 13 13 13 12 13 13 12 11 11 11 11 10 8 7 7 7 7 8 7 6 5 5 5 6 6 5 4 4 3 4
5 4 2 3 3 4 5 5 4 5 6 5 3 3 4 4 5 6 7 6 5 6 7 8 10 10 9 9 10 11 12 14 13 13 14 17 19 21 23 22 19 18 18 16 13 11 10 9 8 8 9 10 11 12 12 12 12 11 10 10 10 9 8 8 7 8 9 8 7 6 7 7 7 7 5 4 2 2 2 3 3 2 3 3 3
5 4 2 3 3 4 5 3 2 2 3 3 3 4 5 5 4 5 6 5 5 5 5 7 9 8 8 9 9 10 11 12 12 12 12 14 16 19 21 21 19 17 18 17 15 13 10 8 8 8 9 10 10 11 13 13 13 12 11 11 10 9 9 8 6 5 6 7 7 6 6 6 7 7 6 4 3 2 1 1 1 1 0 1 2
6 4 3 2 1 2 2 1 2 2 2 1 1 4 6 7 6 5 4 3 4 4 4 5 7 7 6 7 8 8 9 10 10 11 11 12 13 16 18 19 18 18 17 17 16 14 12 10 9 9 10 10 10 10 12 13 13 13 12 12 11 10 10 9 8 6 7 7 7 8 8 8 8 9 8 6 4 3 2 2 1 2 2 2 1
6 4 5 4 3 1 1 1 1 2 2 2 2 2 5 7 8 7 4 2 2 3 4 5 6 7 7 7 8 9 8 8 8 9 9 10 11 13 15 16 16 17 17 16 16 14 12 11 11 11 10 10 10 10 10 11 12 12 12 12 11 10 10 9 9 8 8 9 9 9 10 10 11 11 10 7 6 6 5 5 5 4 4 5 5
8 6 5 5 6 5 3 1 1 2 2 2 2 2 3 5 7 8 6 4 4 3 4 6 7 8 8 8 9 10 9 9 9 8 8 8 9 11 12 13 14 14 15 15 16 15 13 11 10 10 9 9 9 9 9 9 10 10 10 10 9 9 9 9 9 9 9 9 10 10 10 10 11 11 9 7 5 6 6 6 6 5 5 6 7
9 7 6 6 7 7 5 3 2 3 3 2 2 2 3 4 6 8 8 6 6 6 7 9 9 9 9 9 9 8 9 9 10 10 9 8 8 8 9 10 11 12 13 13 14 16 15 13 10 8 8 8 8 8 8 9 9 9 9 9 9 9 9 9 8 8 8 8 8 9 8 8 8 8 7 6 5 5 6 6 5 5 5 6 7
9 8 8 7 7 7 6 5 5 5 5 4 4 4 4 5 6 7 8 8 8 8 9 10 10 9 9 9 8 7 7 8 9 10 10 10 10 9 8 8 8 9 10 12 12 13 14 14 11 9 9 8 7 7 8 8 9 9 9 10 10 10 10 10 10 9 9 8 8 8 7 6 6 5 4 4 4 5 6 7 7 6 5 6 8
11 10 10 9 8 7 7 7 8 8 8 8 8 8 7 7 8 8 8 9 10 9 8 9 10 10 10 10 9 8 8 8 7 8 9 10 11 11 10 9 9 8 8 9 10 11 12 12 11 10 9 9 8 7 8 9 9 9 9 10 10 10 10 10 10 10 10 9 8 8 7 6 5 4 3 2 3 4 5 7 9 9 9 9 9
Wind_Direction
76 62 49 43 39 39 38 36 37 37 35 30 23 17 8 356 339 320 299 287 282 280 282 291 300 308 310 302 295 293 294 294 292 290 287 289 295 295 292 292 292 288 277 267 263 261 259 256 257 257 251 247 248 248 246 246 248 248 245 240 238 238 233 231 234 235 232 231 232 231 224 220 224 226 221 215 213 214 215 215 215 215 213 210 209
79 62 45 38 36 39 45 50 49 43 37 34 32 28 22 18 7 349 327 309 295 282 278 284 297 306 306 299 295 295 298 300 301 301 295 290 291 291 290 292 294 289 279 270 267 266 263 260 258 257 253 249 246 245 245 246 247 248 246 241 238 238 234 231 232 233 233 231 230 232 228 221 220 223 221 216 213 211 212 213 213 212 213 211 209
80 66 52 47 46 48 52 56 53 44 38 37 36 32 28 23 16 7 0 352 334 310 293 285 289 296 295 294 297 299 303 305 306 310 308 299 292 288 285 285 286 284 279 273 271 269 267 264 260 257 254 250 246 245 245 245 245 246 246 244 240 238 235 231 231 233 235 233 230 231 230 224 221 222 222 219 215 212 212 213 213 210 210 210 209
79 67 57 53 53 54 54 56 53 44 39 38 36 33 29 25 21 17 14 11 6 352 329 305 293 291 288 292 300 303 304 306 308 312 313 307 297 290 288 285 281 280 279 276 271 269 268 267 263 258 255 253 249 248 247 246 244 244 245 244 241 237 234 231 229 233 236 234 232 231 229 227 223 223 225 223 216 214 216 214 213 212 209 208 208
75 66 59 55 55 54 54 55 53 47 43 41 39 35 31 27 24 22 18 15 14 10 359 341 320 307 300 302 306 306 304 305 306 308 309 310 305 295 291 289 283 279 279 277 273 269 267 266 263 260 258 255 252 249 249 247 245 244 245 244 239 236 235 233 230 231 236 236 232 227 226 226 224 223 227 226 218 214 216 215 214 213 209 207 207
70 67 63 58 54 54 55 55 54 52 49 48 45 41 39 35 30 28 25 21 17 14 10 2 350 336 324 317 315 312 307 304 304 303 303 306 307 301 295 290 286 280 278 277 274 271 269 265 262 261 262 259 255 252 249 248 247 246 244 241 236 233 235 237 235 234 235 234 228 224 223 224 225 224 226 226 222 217 213 211 212 213 210 208 206
70 72 70 63 57 57 59 58 57 56 54 53 50 47 45 42 39 36 32 29 25 22 18 11 3 354 342 332 325 320 315 310 305 301 299 300 303 303 298 292 288 285 282 279 276 272 269 265 259 256 257 260 261 258 252 247 247 245 241 237 234 232 234 236 236 236 233 226 222 222 222 224 226 227 225 224 223 220 213 208 206 209 210 209 208
73 76 72 66 60 60 60 57 57 57 55 53 50 47 46 44 42 39 34 32 30 29 27 22 15 7 358 352 344 337 332 325 317 310 303 298 298 301 301 297 293 291 286 281 277 272 267 263 258 254 255 258 262 263 257 249 245 244 243 240 235 233 235 236 235 235 232 224 222 222 222 223 224 225 223 219 218 220 217 211 208 209 209 208 208
76 76 71 67 63 61 59 55 54 53 51 49 45 43 42 41 40 38 34 33 31 29 28 25 22 16 11 6 360 354 349 344 339 332 321 311 303 302 303 301 299 295 289 283 278 273 268 263 259 258 259 260 262 263 262 256 250 246 246 246 242 237 237 236 234 233 230 225 223 222 220 221 221 221 220 219 219 221 218 212 212 214 212 207 206
75 75 74 72 69 65 61 56 53 51 48 46 41 37 35 33 33 32 30 29 26 24 22 19 18 16 14 12 8 4 360 356 351 342 333 326 317 310 305 303 300 297 293 289 283 277 272 265 259 257 258 259 258 258 259 258 253 249 249 249 247 244 241 238 235 232 230 228 225 222 220 220 221 222 223 224 224 222 217 212 213 214 212 209 207
73 73 73 72 68 64 60 55 52 51 48 44 39 35 32 30 28 26 23 21 18 16 15 14 14 13 11 11 9 8 6 1 354 344 337 335 330 323 315 307 300 296 294 292 288 282 275 266 257 252 252 253 253 253 254 254 251 250 252 250 248 247 245 242 238 235 233 232 229 226 225 226 225 224 226 227 225 221 218 216 214 211 210 209 208
73 73 71 67 64 61 57 54 52 51 49 43 37 34 31 31 30 27 23 20 17 15 14 14 13 12 11 10 9 8 7 4 356 345 339 339 338 335 326 314 305 297 290 288 287 283 277 269 259 252 251 252 252 254 255 253 251 250 252 250 245 245 246 245 243 241 239 236 233 230 229 230 228 225 225 226 225 221 218 217 215 212 211 211 211
74 72 68 63 60 59 57 56 55 51 47 41 37 36 36 35 34 33 31 27 23 20 19 18 17 15 13 12 11 9 8 6 1 353 344 341 345 347 338 324 315 302 287 278 276 277 278 277 269 257 253 253 252 252 253 253 252 250 251 250 244 241 243 244 244 244 245 243 239 236 234 233 231 229 228 229 226 220 216 215 215 214 214 215 214
73 68 64 59 57 57 58 59 58 53 47 42 41 42 43 42 40 39 37 34 30 27 24 22 21 19 17 16 14 12 11 9 5 1 354 347 350 354 347 333 321 308 294 281 274 274 277 279 272 258 252 253 253 253 254 254 253 252 252 253 249 244 243 245 244 244 245 244 241 240 240 240 240 238 234 230 227 221 217 216 215 214 216 218 216
72 67 63 60 57 57 60 61 60 57 52 48 47 47 46 46 45 44 42 39 36 32 29 27 25 23 21 19 17 16 16 13 8 5 2 357 355 355 350 341 330 315 301 291 284 279 275 274 269 258 251 251 253 256 258 257 257 256 256 257 256 251 248 245 241 238 239 241 241 241 243 244 244 242 237 232 228 224 221 219 216 213 215 217 214
70 67 64 61 57 56 59 61 61 60 56 52 50 48 47 47 47 46 44 43 40 36 33 30 29 27 24 22 20 19 18 16 13 9 6 4 360 354 352 351 345 334 319 306 296 286 278 272 265 257 252 250 251 254 257 259 260 259 257 257 256 253 250 246 241 238 239 241 242 242 243 245 243 240 237 233 229 227 226 224 218 213 213 214 210
73 70 67 63 58 57 58 59 60 60 57 54 51 49 47 47 47 45 44 44 42 40 36 33 31 29 27 25 22 19 18 17 16 13 11 10 7 360 356 354 350 346 339 329 318 303 289 276 264 256 253 252 253 253 256 259 261 258 255 254 254 252 251 249 245 242 240 240 241 242 243 244 242 239 236 232 228 226 226 223 218 212 212 212 209
74 71 67 63 59 57 56 56 58 58 57 56 53 51 49 48 47 46 45 45 45 43 40 36 34 32 30 29 27 23 19 16 15 14 15 15 14 10 4 358 353 352 349 342 337 328 310 290 273 262 256 255 255 255 255 258 260 258 255 255 257 255 252 252 249 243 239 239 242 244 243 241 238 237 237 233 228 224 222 223 222 216 212 213 211
73 68 65 65 62 58 55 55 55 55 55 56 55 53 52 50 50 50 48 47 47 45 42 39 37 35 34 32 31 29 26 20 15 14 15 17 19 17 12 6 2 0 355 349 344 339 332 315 286 267 258 255 257 258 256 252 251 254 255 258 264 262 255 250 248 245 241 240 241 241 239 236 234 232 233 232 229 227 223 223 225 223 216 213 212
73 67 66 67 65 60 56 55 54 52 52 54 54 54 53 52 51 51 50 49 48 46 44 41 39 37 36 34 33 32 30 26 21 17 16 18 21 20 17 14 12 8 1 355 349 341 341 345 327 292 270 263 265 266 258 245 238 245 249 251 264 266 255 247 244 245 245 243 242 241 238 235 231 227 224 223 225 229 227 222 223 225 221 217 215
75 69 67 68 66 62 59 57 54 52 50 50 52 52 51 51 50 50 50 50 49 47 46 44 41 39 37 36 35 34 32 29 26 22 20 21 23 23 23 21 18 14 7 3 1 355 350 348 341 331 321 299 288 276 256 240 238 247 249 248 266 266 254 244 239 240 242 240 241 243 242 239 234 226 222 218 215 217 219 218 220 222 220 218 216
77 71 67 67 66 64 62 58 55 52 49 48 49 49 48 48 47 48 48 48 48 48 47 44 43 41 39 37 35 34 34 31 29 27 25 24 25 26 27 25 21 19 16 12 11 8 4 357 347 337 328 310 298 283 236 221 231 247 238 193 331 302 280 266 253 240 234 234 238 240 238 238 237 228 224 221 215 210 211 213 218 221 220 217 216
78 71 66 66 67 64 61 58 55 52 49 48 47 46 44 43 43 44 45 46 46 46 45 43 42 41 40 39 36 35 34 33 32 32 31 30 29 28 27 25 23 22 23 22 18 14 12 8 358 344 333 318 298 274 228 199 197 200 171 141 131 82 11 325 310 277 223 227 235 235 231 232 237 234 229 223 216 212 211 211 214 218 218 216 215
78 71 67 65 65 62 60 58 55 52 50 48 47 45 42 40 41 41 41 42 44 45 44 42 41 40 38 37 36 34 33 33 33 33 32 33 33 31 28 26 22 21 23 26 24 19 16 15 8 357 354 352 312 251 205 168 164 173 170 162 166 166 178 238 272 270 239 223 223 223 214 211 220 223 222 220 216 213 213 214 214 213 213 212 211
78 72 69 67 63 60 59 57 54 51 48 46 47 45 41 39 41 40 39 39 41 44 44 42 41 40 38 35 34 32 31 32 32 32 31 30 31 32 32 30 26 22 21 23 24 22 21 19 16 16 31 54 89 148 143 133 139 155 164 169 173 175 182 189 194 211 213 196 189 185 173 164 165 162 159 172 194 204 208 207 204 200 197 199 201
80 73 72 70 65 60 57 55 53 51 47 45 46 45 41 40 40 40 39 39 40 42 43 42 41 40 38 35 32 29 28 28 29 29 29 28 28 28 29 29 28 26 25 24 23 24 26 26 27 30 41 57 74 88 98 110 128 141 148 158 168 175 180 180 177 177 172 162 155 146 138 135 132 128 131 138 145 155 166 173 173 167 163 167 169
80 74 74 74 70 62 56 53 51 50 49 47 45 44 43 41 40 39 39 39 40 41 42 40 39 38 37 35 32 28 25 24 24 25 25 24 24 24 24 25 25 24 26 27 27 28 28 31 37 42 48 56 63 68 72 83 100 109 113 123 138 149 158 162 162 159 152 146 142 135 131 130 127 123 124 128 129 131 137 144 146 144 146 150 145
80 77 79 80 74 64 55 52 51 51 50 47 44 44 44 43 41 40 39 39 41 42 42 40 38 36 34 33 31 27 24 22 23 24 24 22 21 20 22 24 25 24 26 27 30 32 33 33 38 43 47 52 57 59 61 64 71 78 84 93 102 113 126 135 136 133 132 134 135 133 131 132 131 128 126 122 118 119 127 138 140 141 148 154 147
77 78 81 82 77 67 57 54 54 54 53 49 45 44 45 45 44 42 41 40 41 42 42 42 41 38 35 32 30 26 23 21 20 20 21 23 23 22 22 24 26 28 31 32 33 37 39 41 41 41 41 43 45 49 51 53 58 63 69 78 88 95 101 105 105 103 105 111 116 118 120 121 121 122 127 126 123 122 126 133 132 130 138 147 140
78 78 79 79 76 69 61 57 56 56 55 52 47 43 44 47 46 44 43 42 42 43 43 44 42 40 38 36 33 29 23 18 14 13 15 20 24 25 27 28 28 30 34 38 41 43 45 46 46 45 45 45 44 44 45 46 49 53 56 64 75 85 92 96 98 100 102 105 108 110 113 114 113 115 120 122 123 124 126 129 131 129 134 145 138
86 80 79 81 78 70 64 58 55 56 56 53 48 43 43 47 48 45 44 43 43 44 45 45 44 41 39 38 37 35 31 23 15 13 14 18 21 25 30 33 33 32 34 40 45 47 47 47 47 48 49 50 50 50 50 50 51 53 56 59 65 74 84 91 98 106 112 113 115 118 120 120 120 121 124 125 121 116 114 114 117 117 112 118 126
95 82 82 89 82 69 63 60 56 55 55 52 48 44 42 46 48 46 44 43 43 43 45 45 45 43 40 37 36 36 35 32 26 20 19 21 23 26 33 38 39 36 36 42 47 47 45 44 45 46 49 51 53 54 55 55 56 58 60 63 66 70 73 76 81 91 100 103 108 114 116 117 118 118 122 127 119 105 98 100 102 101 101 103 106
104 88 88 95 88 73 69 64 59 57 55 51 48 45 43 45 49 48 44 42 41 42 42 42 43 42 40 36 34 33 34 33 32 30 28 28 30 32 36 42 42 40 38 41 44 45 44 42 42 43 46 49 51 54 56 58 58 60 63 65 66 67 69 71 74 77 79 78 78 79 82 85 89 91 96 112 119 111 105 106 105 105 107 109 109
110 100 95 95 88 79 74 66 61 61 56 49 48 47 44 44 48 48 45 41 39 39 39 39 39 40 39 36 33 32 31 30 31 32 33 35 38 40 43 45 45 43 41 40 42 44 44 43 43 44 46 49 50 52 56 59 61 62 64 65 65 66 68 70 71 70 70 71 70 67 67 70 76 81 82 88 99 105 109 113 112 112 115 117 117
115 111 105 93 81 78 74 63 61 62 55 49 50 50 45 42 44 46 45 41 38 36 36 36 36 37 37 35 32 30 29 28 29 29 31 34 37 39 43 45 44 44 43 41 42 45 45 45 45 46 48 51 53 53 55 58 61 64 65 65 66 67 68 70 71 70 69 68 66 63 61 63 68 76 81 83 87 96 108 120 122 121 122 125 126
122 116 106 86 74 76 69 58 58 59 52 48 50 49 44 40 41 44 45 42 38 35 34 33 33 33 34 33 30 28 27 28 28 27 28 30 31 35 42 46 46 45 44 42 41 43 46 46 47 49 51 54 55 55 54 55 58 62 66 68 68 67 66 66 67 67 66 65 63 60 58 59 63 70 79 84 86 90 102 115 121 121 123 127 127
120 109 99 87 83 86 77 68 66 59 50 47 48 47 43 39 40 42 42 39 38 36 33 32 32 31 32 32 29 26 25 26 27 27 28 28 29 34 42 47 48 47 45 42 39 40 44 47 47 48 50 52 52 52 52 52 54 58 63 67 66 65 63 62 60 59 60 60 59 58 55 53 54 57 68 79 83 85 93 103 109 110 113 122 129
123 113 106 103 104 104 103 95 72 53 49 52 50 42 37 38 40 38 35 34 37 36 32 29 29 29 29 29 27 24 23 24 25 26 27 28 29 33 38 43 44 45 44 40 35 35 39 43 45 46 47 47 47 47 46 45 46 49 53 56 58 58 60 60 59 57 57 58 59 59 57 54 50 48 52 63 70 75 82 90 99 105 110 119 131
132 127 117 107 107 115 120 106 65 48 60 70 63 44 36 41 39 32 28 30 34 33 28 26 25 26 27 27 25 21 20 22 25 25 26 28 29 31 36 38 38 39 41 39 35 33 35 38 41 43 44 43 43 41 40 38 37 38 41 45 48 51 54 56 56 56 56 57 59 61 61 59 56 52 53 57 61 64 71 78 87 101 112 121 129
140 142 122 98 99 108 112 89 56 58 74 80 73 56 44 42 39 35 35 34 32 28 24 19 18 21 22 23 22 19 17 20 24 24 25 27 28 29 34 37 37 37 40 40 38 35 34 35 35 37 40 40 38 37 37 36 33 33 36 38 38 40 47 53 54 53 52 52 55 59 62 64 66 68 71 71 68 66 68 76 92 112 124 129 132
144 151 133 99 77 64 73 86 81 73 70 71 69 61 50 43 43 43 44 43 40 35 28 19 15 17 18 17 16 15 15 19 22 23 23 25 26 27 31 35 38 39 41 43 42 39 36 35 32 30 32 35 34 33 34 33 32 34 38 38 37 38 41 46 50 49 45 44 48 53 58 62 65 71 79 81 77 74 74 78 94 119 133 137 140
139 139 126 100 58 45 99 116 92 57 45 55 66 57 50 47 44 38 35 39 42 39 33 28 22 15 13 13 10 9 12 18 20 21 22 24 25 26 27 31 36 39 39 40 40 38 34 31 28 24 23 28 30 29 30 31 31 33 34 34 35 39 41 41 42 41 39 42 47 49 50 53 54 58 69 76 80 85 86 83 87 107 127 139 146
145 140 118 70 29 58 109 106 78 57 58 77 81 55 47 51 45 29 20 24 34 36 36 36 31 22 14 12 7 6 11 17 18 19 21 21 23 26 26 27 31 37 37 36 36 34 28 24 25 21 19 21 23 22 22 25 25 24 25 26 28 32 35 36 38 38 35 33 36 38 36 35 35 39 52 66 71 77 75 68 70 91 112 129 154
167 158 112 54 55 96 104 89 70 71 79 81 74 42 33 42 39 22 11 15 34 41 38 38 36 30 23 17 10 7 11 14 15 17 19 19 21 24 25 24 26 32 37 39 42 40 31 24 21 18 15 16 16 13 10 11 11 8 8 11 11 11 13 15 22 33 32 24 18 18 16 15 16 17 18 21 15 18 37 48 58 82 87 86 120
175 173 133 64 69 106 112 86 44 53 73 73 61 39 27 20 7 1 6 26 53 56 42 37 39 35 26 20 16 10 7 8 10 13 17 18 19 21 23 24 25 28 34 41 45 46 41 28 15 9 9 11 11 6 3 4 6 4 3 4 4 4 6 1 353 357 2 356 351 350 350 354 359 359 354 348 335 322 327 28 73 126 101 35 59
183 187 184 169 82 86 93 52 337 305 279 245 52 29 22 14 1 350 352 26 53 53 41 31 30 26 19 15 12 5 0 3 6 8 11 15 17 18 19 21 22 24 29 36 41 45 47 42 32 26 24 20 17 11 7 9 14 16 16 16 16 15 14 9 1 347 334 326 323 322 321 322 329 334 332 323 306 290 276 272 273 251 240 246 240
187 185 190 201 208 183 101 13 306 276 252 222 226 341 11 16 11 358 336 317 357 19 17 9 5 1 358 357 355 352 350 351 353 357 1 8 13 15 16 16 16 17 22 28 32 36 42 46 45 42 40 37 33 28 24 24 26 25 23 21 20 17 12 7 0 350 337 327 321 317 312 310 313 317 319 314 296 276 267 271 273 269 260 248 237
192 194 203 215 215 212 218 256 263 248 230 204 218 279 332 359 5 1 343 312 304 324 337 341 345 346 344 344 344 342 338 334 333 336 340 347 358 7 12 13 12 11 13 20 24 24 25 33 40 41 40 42 40 35 30 28 26 25 21 18 15 11 6 359 350 342 334 328 324 320 318 316 315 315 318 317 296 268 263 268 269 269 266 250 238
201 207 226 238 228 220 224 231 233 241 246 236 243 279 306 329 348 356 350 325 303 302 314 327 336 341 341 340 337 331 324 322 322 321 321 324 333 344 355 3 7 7 6 11 16 17 17 21 27 29 29 33 34 29 23 21 20 20 19 17 16 14 11 6 359 351 344 340 336 333 330 327 322 317 315 312 289 259 252 255 257 264 260 237 229
212 212 226 237 230 223 231 241 242 242 246 252 267 284 295 304 319 338 345 333 314 306 313 326 336 341 343 344 343 336 333 330 324 315 310 310 312 316 324 336 349 356 358 359 4 9 12 15 19 19 18 21 23 21 19 18 18 18 16 13 12 13 13 13 12 9 6 2 358 353 348 344 338 324 310 298 278 258 250 245 243 248 248 231 226
229 225 225 228 227 228 242 254 254 252 256 265 271 274 281 295 304 311 323 328 323 316 321 331 335 336 340 347 351 350 350 351 346 330 315 307 304 302 304 309 317 327 337 345 349 353 359 7 14 18 20 21 22 23 25 24 23 22 20 16 14 13 13 12 13 13 13 10 7 3 2 1 353 335 315 296 274 261 256 250 245 243 241 236 232